Location: Peach Mountain Observatory
(42.3967°N, 83.9367°W)
Time: 20:21:33
(UTC-05:00)

Explorer 11/Cluster Stage 4 - Pass Details

Date: 28 January 2020
Orbit: 467 x 1259 km, 28.8° (Epoch: 16 February)

Event Time Altitude Azimuth Distance (km) Brightness Sun altitude
Rises 18:32:01 0° 256° (WSW) 4,094 12.7 -9.1°
Reaches altitude 10° 18:38:25 10° 219° (SW) 2,944 10.4 -10.3°
Maximum altitude 18:39:24 10° 211° (SSW) 2,887 10.2 -10.4°
Drops below altitude 10° 18:40:21 10° 203° (SSW) 2,873 10.0 -10.6°
Sets 18:46:02 0° 164° (SSE) 3,571 9.9 -11.6°
